TimeEDT,TemperatureF,Dew PointF,Humidity,Sea Level PressureIn,VisibilityMPH,Wind Direction,Wind SpeedMPH,Gust SpeedMPH,PrecipitationIn,Events,Conditions,WindDirDegrees,DateUTC
12:56 AM,64.9,62.1,90,29.90,7.0,Calm,Calm,-,N/A,,Clear,0,2013-06-18 04:56:00
1:56 AM,64.0,62.1,93,29.91,6.0,Calm,Calm,-,N/A,,Clear,0,2013-06-18 05:56:00
2:56 AM,63.0,61.0,93,29.89,4.0,Calm,Calm,-,N/A,,Clear,0,2013-06-18 06:56:00
3:15 AM,62.6,60.8,94,29.88,4.0,Calm,Calm,-,N/A,,Partly Cloudy,0,2013-06-18 07:15:00
3:43 AM,62.6,60.8,94,29.89,4.0,Calm,Calm,-,N/A,,Mostly Cloudy,0,2013-06-18 07:43:00
3:56 AM,63.0,61.0,93,29.89,4.0,Calm,Calm,-,N/A,,Overcast,0,2013-06-18 07:56:00
4:06 AM,64.4,62.6,94,29.88,4.0,Calm,Calm,-,N/A,,Overcast,0,2013-06-18 08:06:00
4:31 AM,64.4,62.6,94,29.89,1.8,Calm,Calm,-,N/A,,Overcast,0,2013-06-18 08:31:00
4:40 AM,64.4,62.6,94,29.89,3.0,SE,4.6,-,N/A,,Overcast,140,2013-06-18 08:40:00
4:56 AM,64.9,64.0,97,29.89,4.0,SE,3.5,-,N/A,,Overcast,140,2013-06-18 08:56:00
5:56 AM,66.0,64.0,93,29.89,2.5,Calm,Calm,-,N/A,,Overcast,0,2013-06-18 09:56:00
6:09 AM,66.2,64.4,94,29.90,1.5,Calm,Calm,-,N/A,,Overcast,0,2013-06-18 10:09:00
6:44 AM,66.2,64.4,94,29.90,0.8,SSE,3.5,-,N/A,,Overcast,150,2013-06-18 10:44:00
6:56 AM,66.0,64.0,93,29.90,0.8,SSE,3.5,-,N/A,,Overcast,160,2013-06-18 10:56:00
7:03 AM,66.2,64.4,94,29.91,1.5,SSE,3.5,-,N/A,,Overcast,160,2013-06-18 11:03:00
7:39 AM,66.2,64.4,94,29.91,0.5,Calm,Calm,-,N/A,Fog,Fog,0,2013-06-18 11:39:00
7:56 AM,66.0,64.9,96,29.91,1.5,Calm,Calm,-,N/A,,Overcast,0,2013-06-18 11:56:00
8:17 AM,66.2,64.4,94,29.91,2.0,Calm,Calm,-,N/A,,Overcast,0,2013-06-18 12:17:00
8:36 AM,68.0,66.2,94,29.91,3.0,SSE,4.6,-,N/A,,Overcast,160,2013-06-18 12:36:00
8:56 AM,69.1,66.0,90,29.91,5.0,South,3.5,-,N/A,,Scattered Clouds,170,2013-06-18 12:56:00
9:56 AM,75.0,66.0,73,29.91,10.0,South,5.8,-,N/A,,Clear,180,2013-06-18 13:56:00
10:56 AM,77.0,66.0,69,29.89,10.0,SSW,4.6,-,N/A,,Clear,200,2013-06-18 14:56:00
11:56 AM,78.1,64.9,64,29.89,10.0,SW,9.2,-,N/A,,Clear,220,2013-06-18 15:56:00
12:56 PM,78.1,64.9,64,29.87,10.0,South,8.1,-,N/A,,Clear,190,2013-06-18 16:56:00
1:56 PM,79.0,66.0,64,29.86,10.0,South,8.1,-,N/A,,Clear,170,2013-06-18 17:56:00
2:56 PM,73.9,64.0,71,29.84,10.0,South,5.8,-,N/A,,Clear,170,2013-06-18 18:56:00
3:56 PM,73.9,64.9,73,29.84,10.0,South,4.6,-,N/A,,Clear,190,2013-06-18 19:56:00
4:56 PM,72.0,66.0,81,29.85,9.0,SW,4.6,-,N/A,,Mostly Cloudy,230,2013-06-18 20:56:00
5:17 PM,71.6,66.2,83,29.84,8.0,SSW,3.5,-,N/A,,Overcast,210,2013-06-18 21:17:00
5:56 PM,71.1,66.0,84,29.84,8.0,Calm,Calm,-,N/A,,Mostly Cloudy,0,2013-06-18 21:56:00
6:30 PM,73.4,66.2,78,29.85,6.0,NNW,9.2,-,N/A,,Haze,330,2013-06-18 22:30:00
6:56 PM,70.0,64.9,84,29.87,8.0,North,12.7,19.6,0.00,Rain,Light Rain,350,2013-06-18 22:56:00
7:05 PM,68.0,64.4,88,29.88,7.0,North,5.8,17.3,0.00,Rain,Light Rain,10,2013-06-18 23:05:00
7:13 PM,68.0,64.4,88,29.88,6.0,North,6.9,-,0.00,Rain,Light Rain,10,2013-06-18 23:13:00
7:25 PM,66.2,64.4,94,29.88,5.0,NE,4.6,-,0.01,Rain,Light Rain,40,2013-06-18 23:25:00
7:56 PM,66.9,64.9,93,29.88,4.0,Calm,Calm,-,0.05,Rain,Light Rain,0,2013-06-18 23:56:00
8:56 PM,66.0,64.0,93,29.86,5.0,Variable,4.6,-,0.07,Rain,Light Rain,0,2013-06-19 00:56:00
9:23 PM,66.2,64.4,94,29.86,6.0,Variable,4.6,-,0.02,Rain,Light Rain,0,2013-06-19 01:23:00
9:32 PM,66.2,64.4,94,29.86,5.0,Variable,4.6,-,0.03,Rain,Light Rain,0,2013-06-19 01:32:00
9:56 PM,64.0,63.0,96,29.85,9.0,Variable,3.5,-,0.04,Rain,Light Rain,0,2013-06-19 01:56:00
10:10 PM,64.4,62.6,94,29.86,10.0,Variable,3.5,-,0.00,,Mostly Cloudy,0,2013-06-19 02:10:00
10:30 PM,64.4,62.6,94,29.87,9.0,North,4.6,-,0.01,Rain,Light Rain,10,2013-06-19 02:30:00
10:56 PM,64.0,62.1,93,29.86,10.0,Variable,3.5,-,0.02,Rain,Light Rain,0,2013-06-19 02:56:00
11:56 PM,62.1,60.1,93,29.87,10.0,Variable,3.5,-,0.00,,Overcast,0,2013-06-19 03:56:00